EW9000 Weather Reports


Display with metric or nautical units.
time (UTC)temp
F
wind
direction
speed
MPH
gust
MPH
rain 1hr
in
rain 24hr
in
rain mn
in
humidity
%
barometer
mb
20181118221521 36 200 2.0 2.0 0.00 0.00 0.00 77 1024.7
20181118220518 36 192 2.0 3.0 0.00 0.00 0.00 77 1024.7
20181118215520 36 49 0.0 1.0 0.00 0.00 0.00 77 1024.6
20181118214533 36 174 1.0 4.0 0.00 0.00 0.00 77 1024.7
20181118213517 36 185 1.0 2.0 0.00 0.00 0.00 77 1024.6
20181118212523 36 201 2.0 3.0 0.00 0.00 0.00 77 1024.8
20181118211517 36 0.0 0.0 0.00 0.00 0.00 77 1024.9
20181118210517 36 0.0 0.0 0.00 0.00 0.00 77 1025.0
20181118205529 36 25 1.0 2.0 0.00 0.00 0.00 77 1025.1
20181118204523 36 4 1.0 3.0 0.00 0.00 0.00 77 1025.1
20181118203524 35 25 3.0 4.0 0.00 0.00 0.00 77 1025.3
20181118202526 36 3 3.0 4.0 0.00 0.00 0.00 77 1025.4
20181118201521 36 331 1.0 3.0 0.00 0.00 0.00 78 1025.5
20181118200532 35 25 3.0 5.0 0.00 0.00 0.00 79 1025.5
20181118195521 34 37 2.0 2.0 0.00 0.00 0.00 78 1025.5
20181118194530 35 75 1.0 2.0 0.00 0.00 0.00 78 1025.6
20181118193526 34 22 2.0 2.0 0.00 0.00 0.00 79 1025.8
20181118192532 34 58 2.0 3.0 0.00 0.00 0.00 79 1026.0
20181118191521 34 22 2.0 2.0 0.00 0.00 0.00 80 1026.1
20181118190518 34 0 2.0 3.0 0.00 0.00 0.00 80 1026.2
20181118185532 33 45 2.0 4.0 0.00 0.00 0.00 80 1026.2
20181118184532 33 18 2.0 4.0 0.00 0.00 0.00 80 1026.4
20181118183526 33 84 2.0 3.0 0.00 0.00 0.00 80 1026.7
20181118182519 33 56 2.0 4.0 0.00 0.00 0.00 80 1027.1
20181118181529 33 11 3.0 5.0 0.00 0.00 0.00 81 1027.2
20181118180520 32 25 2.0 4.0 0.00 0.00 0.00 81 1027.3
20181118175526 32 15 3.0 5.0 0.00 0.00 0.00 82 1027.4
20181118174522 31 26 3.0 4.0 0.00 0.00 0.00 82 1027.4
20181118173516 31 29 3.0 4.0 0.00 0.00 0.00 83 1027.9
20181118172527 31 34 1.0 3.0 0.00 0.00 0.00 84 1028.0
20181118171521 30 34 3.0 4.0 0.00 0.00 0.00 84 1028.2
20181118170516 30 28 2.0 3.0 0.00 0.00 0.00 85 1028.3
20181118165528 30 23 2.0 3.0 0.00 0.00 0.00 85 1028.3
20181118164518 30 20 2.0 4.0 0.00 0.00 0.00 85 1028.3
20181118163520 29 33 1.0 4.0 0.00 0.00 0.00 86 1028.4
20181118162531 29 25 2.0 4.0 0.00 0.00 0.00 86 1028.3
20181118161524 29 12 2.0 4.0 0.00 0.00 0.00 86 1028.3
20181118160526 29 354 2.0 5.0 0.00 0.00 0.00 86 1028.4
20181118155520 28 35 2.0 4.0 0.00 0.00 0.00 86 1028.2
20181118154530 28 38 3.0 5.0 0.00 0.00 0.00 86 1028.2
20181118153523 28 2 3.0 6.0 0.00 0.00 0.00 86 1028.1
20181118152520 27 27 4.0 6.0 0.00 0.00 0.00 87 1028.1
20181118151525 27 22 5.0 8.0 0.00 0.00 0.00 87 1028.1
20181118150520 27 16 4.0 7.0 0.00 0.00 0.00 87 1028.1
20181118145521 27 35 4.0 6.0 0.00 0.00 0.00 87 1028.1
20181118144516 27 21 4.0 5.0 0.00 0.00 0.00 87 1028.2
20181118143529 27 9 5.0 8.0 0.00 0.00 0.00 87 1028.4
20181118142523 27 19 3.0 4.0 0.00 0.00 0.00 88 1028.4
20181118141524 27 10 6.0 8.0 0.00 0.00 0.00 88 1028.4
20181118140519 27 28 4.0 6.0 0.00 0.00 0.00 88 1028.4
20181118135519 27 16 5.0 9.0 0.00 0.00 0.00 88 1028.1
20181118134531 27 16 4.0 5.0 0.00 0.00 0.00 89 1028.0
20181118133525 27 8 5.0 6.0 0.00 0.00 0.00 89 1027.9
20181118132517 27 3 4.0 5.0 0.00 0.00 0.00 90 1027.9
20181118131522 27 36 3.0 5.0 0.00 0.00 0.00 90 1027.9
20181118130519 28 22 4.0 6.0 0.00 0.00 0.00 90 1027.9
20181118125515 28 34 5.0 7.0 0.00 0.00 0.00 90 1027.9
20181118124529 28 24 3.0 4.0 0.00 0.00 0.00 90 1027.9
20181118123530 28 26 4.0 6.0 0.00 0.00 0.00 90 1027.8
20181118122532 28 36 3.0 5.0 0.00 0.00 0.00 90 1027.7
20181118121528 28 19 4.0 6.0 0.00 0.00 0.00 90 1027.7
20181118120527 28 19 4.0 6.0 0.00 0.00 0.00 90 1027.7
20181118115519 28 12 3.0 4.0 0.00 0.00 0.00 89 1027.7
20181118114531 28 40 3.0 4.0 0.00 0.00 0.00 89 1027.4
20181118113523 28 29 4.0 7.0 0.00 0.00 0.00 89 1027.4
20181118112520 28 20 4.0 6.0 0.00 0.00 0.00 89 1027.3
20181118111529 28 23 4.0 8.0 0.00 0.00 0.00 89 1027.2
20181118110519 28 27 3.0 5.0 0.00 0.00 0.00 90 1027.2
20181118105529 28 33 3.0 5.0 0.00 0.00 0.00 90 1027.2
20181118104527 28 29 3.0 5.0 0.00 0.00 0.00 90 1027.2
20181118103531 28 30 3.0 4.0 0.00 0.00 0.00 90 1027.2
20181118102516 28 26 3.0 5.0 0.00 0.00 0.00 90 1027.1
20181118101521 28 14 5.0 7.0 0.00 0.00 0.00 90 1027.0
20181118100532 28 50 3.0 7.0 0.00 0.00 0.00 90 1026.9
20181118095525 28 17 4.0 5.0 0.00 0.00 0.00 90 1026.9
20181118094518 29 30 4.0 6.0 0.00 0.00 0.00 90 1026.9
20181118093516 29 25 3.0 4.0 0.00 0.00 0.00 90 1026.9
20181118092522 29 11 4.0 6.0 0.00 0.00 0.00 90 1027.1
20181118091517 29 25 4.0 7.0 0.00 0.00 0.00 90 1026.9
20181118090519 29 2 4.0 6.0 0.00 0.00 0.00 90 1026.8
20181118085516 29 19 3.0 5.0 0.00 0.00 0.00 90 1026.9
20181118084529 29 27 3.0 6.0 0.00 0.00 0.00 90 1026.7
20181118083527 29 51 3.0 4.0 0.00 0.00 0.00 90 1027.2
20181118082532 29 33 4.0 6.0 0.00 0.00 0.00 90 1027.2
20181118081515 29 19 5.0 7.0 0.00 0.00 0.00 90 1027.1
20181118080528 29 44 5.0 7.0 0.00 0.00 0.00 90 1026.9
20181118075521 29 29 4.0 7.0 0.00 0.00 0.00 90 1027.1
20181118074532 29 24 3.0 5.0 0.00 0.00 0.00 90 1027.1
20181118073525 29 19 6.0 8.0 0.00 0.00 0.00 90 1026.9
20181118072521 29 28 5.0 8.0 0.00 0.00 0.00 90 1026.9
20181118071530 30 43 5.0 8.0 0.00 0.00 0.00 90 1027.0
20181118070521 30 8 4.0 6.0 0.00 0.00 0.00 90 1027.1
20181118065532 30 48 3.0 4.0 0.00 0.00 0.00 90 1027.1
20181118064521 30 22 5.0 8.0 0.00 0.00 0.00 90 1027.1
20181118063531 30 29 5.0 6.0 0.00 0.00 0.00 90 1027.1
20181118062526 30 55 4.0 6.0 0.00 0.00 0.00 90 1027.0
20181118061519 31 29 5.0 7.0 0.00 0.00 0.00 89 1026.9
20181118060526 31 29 4.0 7.0 0.00 0.00 0.00 89 1026.9
20181118055523 31 32 4.0 6.0 0.00 0.00 0.00 89 1026.9
20181118054532 31 10 4.0 5.0 0.00 0.00 0.00 89 1026.9
20181118053525 32 22 4.0 6.0 0.00 0.00 0.00 88 1026.9
20181118052526 32 36 5.0 7.0 0.00 0.00 0.00 88 1026.9
20181118051532 32 24 3.0 5.0 0.00 0.00 0.00 87 1026.9
20181118050515 32 32 4.0 7.0 0.00 0.00 0.00 87 1026.9
20181118045527 32 22 4.0 6.0 0.00 0.00 0.00 87 1026.7
20181118044520 32 35 5.0 6.0 0.00 0.00 0.00 87 1026.7
20181118043532 33 79 3.0 5.0 0.00 0.00 0.00 87 1026.7
20181118042523 33 34 3.0 5.0 0.00 0.00 0.00 87 1026.7
20181118041520 33 45 3.0 7.0 0.00 0.00 0.00 87 1026.7
20181118040531 33 46 3.0 6.0 0.00 0.00 0.00 87 1026.6
20181118035522 33 53 4.0 7.0 0.00 0.00 0.00 87 1026.5
20181118034529 33 53 4.0 9.0 0.00 0.00 0.00 87 1026.5
20181118033527 33 34 4.0 6.0 0.00 0.00 0.00 87 1026.3
20181118032533 33 60 4.0 8.0 0.00 0.00 0.00 87 1026.2
20181118031527 33 24 3.0 4.0 0.00 0.00 0.00 87 1026.2
20181118030524 33 38 5.0 8.0 0.00 0.00 0.00 87 1026.2
20181118025516 33 0 3.0 6.0 0.00 0.00 0.00 87 1026.2
20181118024528 33 38 5.0 10.0 0.00 0.00 0.00 87 1026.2
20181118023523 34 28 4.0 9.0 0.00 0.00 0.00 87 1026.2
20181118022518 34 33 4.0 7.0 0.00 0.00 0.00 87 1026.2
20181118021530 34 37 3.0 5.0 0.00 0.00 0.00 87 1026.2
20181118020520 34 18 5.0 9.0 0.00 0.00 0.00 87 1026.1
20181118015528 34 46 4.0 6.0 0.00 0.00 0.00 87 1026.0
20181118014524 34 69 4.0 6.0 0.00 0.00 0.00 87 1026.0
20181118013520 34 12 4.0 7.0 0.00 0.00 0.00 87 1025.9
20181118012519 34 23 4.0 8.0 0.00 0.00 0.00 87 1025.9
20181118011533 35 61 3.0 5.0 0.00 0.00 0.00 87 1025.9
20181118010525 35 73 3.0 5.0 0.00 0.00 0.00 87 1025.9
20181118005519 35 73 3.0 6.0 0.00 0.00 0.00 87 1025.8
20181118004527 35 15 4.0 6.0 0.00 0.00 0.00 87 1025.8
20181118003521 35 36 5.0 7.0 0.00 0.00 0.00 87 1025.7
20181118002516 35 40 4.0 7.0 0.00 0.00 0.00 87 1025.4
20181118001515 35 36 3.0 8.0 0.00 0.00 0.00 87 1025.4
20181118000533 35 53 5.0 7.0 0.00 0.00 0.00 87 1025.4
20181117235522 36 43 5.0 7.0 0.00 0.00 0.00 87 1025.2
20181117234517 36 85 4.0 9.0 0.00 0.00 0.00 87 1025.0
20181117233529 36 46 4.0 5.0 0.00 0.00 0.00 87 1024.9
20181117232522 36 123 5.0 9.0 0.00 0.00 0.00 86 1024.9
20181117231515 37 42 5.0 8.0 0.00 0.00 0.00 86 1024.8
20181117230522 37 14 4.0 7.0 0.00 0.00 0.00 85 1024.8
20181117225518 37 41 3.0 4.0 0.00 0.00 0.00 85 1024.7
20181117224520 37 23 4.0 7.0 0.00 0.00 0.00 85 1024.7
20181117223529 37 29 4.0 6.0 0.00 0.00 0.00 85 1024.6
20181117222524 37 32 5.0 7.0 0.00 0.00 0.00 85 1024.5